EW4239 Weather Reports


time (UTC)temp
F
wind
direction
speed
knots
gust
knots
rain 1hr
in
rain 24hr
in
rain mn
in
humidity
%
barometer
mb
20260502194550 50 0 0.0 0.9 0.00 0.34 0.34 99 1011.3
20260502193045 51 26 0.9 1.7 0.00 0.34 0.34 99 1011.4
20260502191546 51 0 0.0 0.0 0.00 0.34 0.34 99 1011.6
20260502190054 50 0 0.0 0.0 0.01 0.34 0.34 99 1011.7
20260502184548 50 0 0.0 0.9 0.00 0.33 0.33 99 1011.8
20260502183059 50 0 0.0 0.0 0.00 0.33 0.33 99 1011.7
20260502181553 50 0 0.0 0.0 0.01 0.33 0.33 99 1011.9
20260502163110 50 0 0.0 1.7 0.04 0.29 0.29 98 1012.7
20260502161543 50 0 0.0 1.7 0.04 0.29 0.29 98 1012.8
20260502151545 52 264 0.0 3.5 0.09 0.24 0.24 97 1013.3
20260502130107 53 39 0.9 2.6 0.02 0.02 0.02 91 1014.5
20260502123057 55 335 0.0 1.7 0.00 0.00 0.00 87 1015.0
20260502121547 55 194 0.9 2.6 0.00 0.00 0.00 87 1015.4
20260502114552 56 246 0.0 2.6 0.00 0.00 0.00 84 1015.7
20260502113043 57 255 0.9 2.6 0.00 0.00 0.00 83 1015.8
20260502111550 57 298 0.9 2.6 0.00 0.00 0.00 82 1015.9
20260502110047 58 360 0.9 3.5 0.00 0.00 0.00 80 1015.9
20260502104546 58 208 0.0 2.6 0.00 0.00 0.00 81 1016.2
20260502103045 58 0 0.0 3.5 0.00 0.00 0.00 81 1016.4
20260502101544 58 236 0.0 4.3 0.00 0.00 0.00 81 1016.7
20260502070055 51 25 0.0 0.9 0.00 0.00 0.00 99 1017.9
20260502064550 50 0 0.0 0.9 0.00 0.01 0.00 99 1017.8
20260502063045 49 0 0.0 1.7 0.00 0.01 0.00 99 1017.8
20260502061548 49 0 0.0 0.0 0.00 0.01 0.00 99 1017.9
20260502060051 48 0 0.0 0.0 0.00 0.01 0.00 99 1017.9
20260502054555 47 0 0.0 0.0 0.00 0.01 0.00 99 1018.2
20260502053049 47 0 0.0 0.9 0.00 0.01 0.00 98 1018.2
20260502051546 48 0 0.0 0.0 0.00 0.01 0.00 99 1018.1
20260502050049 47 0 0.0 0.0 0.00 0.01 0.00 99 1018.3
20260502044551 47 0 0.0 0.0 0.00 0.01 0.00 99 1018.3
20260502043052 47 0 0.0 0.0 0.00 0.01 0.00 99 1018.2
20260502041548 47 0 0.0 0.0 0.00 0.01 0.00 99 1018.2
20260502040047 47 0 0.0 0.0 0.00 0.01 0.00 98 1018.2
20260502034545 47 0 0.0 0.0 0.00 0.01 0.00 98 1018.3
20260502033047 47 0 0.0 0.0 0.00 0.01 0.00 99 1018.4
20260502031551 47 0 0.0 0.0 0.00 0.01 0.00 98 1018.5
20260502030046 47 0 0.0 0.0 0.00 0.01 0.00 98 1018.7
20260502024545 47 0 0.0 0.0 0.00 0.01 0.00 98 1018.9
20260502023048 47 0 0.0 0.0 0.00 0.01 0.00 98 1019.0
20260502021549 47 0 0.0 0.0 0.00 0.01 0.00 98 1019.2
20260502020047 47 0 0.0 0.0 0.00 0.01 0.00 98 1019.2
20260502014558 48 0 0.0 0.0 0.00 0.01 0.00 98 1019.4
20260502013055 48 0 0.0 0.0 0.00 0.01 0.00 98 1019.6
20260502011551 48 0 0.0 0.0 0.00 0.01 0.00 98 1019.7
20260502010058 48 0 0.0 0.0 0.00 0.01 0.00 98 1019.8
20260502004546 48 0 0.0 0.0 0.00 0.01 0.00 98 1019.8
20260502003052 49 0 0.0 0.0 0.00 0.01 0.00 98 1020.0
20260502001547 49 0 0.0 0.0 0.00 0.01 0.00 98 1020.1
20260502000054 49 0 0.0 0.0 0.00 0.01 0.00 97 1020.0
20260501234550 49 0 0.0 0.0 0.00 0.01 0.00 97 1020.2
20260501233102 50 0 0.0 0.0 0.00 0.01 0.00 97 1020.1
20260501231557 50 0 0.0 0.0 0.00 0.01 0.00 97 1020.2
20260501230047 50 0 0.0 0.0 0.00 0.01 0.00 97 1020.3
20260501224554 51 0 0.0 0.0 0.00 0.01 0.01 97 1020.3
20260501223052 51 0 0.0 0.9 0.00 0.01 0.01 96 1020.5
20260501221551 51 0 0.0 0.0 0.00 0.01 0.01 97 1020.6
20260501220059 51 0 0.0 0.0 0.00 0.01 0.01 97 1020.8
20260501214544 50 0 0.0 0.0 0.00 0.01 0.01 96 1020.6
20260501213050 50 0 0.0 0.0 0.00 0.01 0.01 96 1020.6
20260501211546 51 0 0.0 0.0 0.00 0.01 0.01 96 1020.5
20260501210047 51 53 0.0 1.7 0.00 0.01 0.01 95 1020.3
20260501204545 52 157 0.0 1.7 0.00 0.01 0.01 95 1020.3
20260501203045 52 55 0.0 2.6 0.00 0.01 0.01 95 1020.2
20260501201556 53 0 0.0 1.7 0.00 0.01 0.01 94 1020.3
20260501200050 53 0 0.0 0.9 0.00 0.01 0.01 94 1020.2